TimeCST,TemperatureF,Dew PointF,Humidity,Sea Level PressureIn,VisibilityMPH,Wind Direction,Wind SpeedMPH,Gust SpeedMPH,PrecipitationIn,Events,Conditions,WindDirDegrees,DateUTC
12:04 AM,35.6,30.2,81,30.08,10.0,North,9.2,-,N/A,,Overcast,360,2012-11-09 06:04:00
12:53 AM,35.1,30.9,85,30.14,10.0,North,8.1,-,N/A,,Overcast,350,2012-11-09 06:53:00
1:26 AM,35.6,30.2,81,30.10,10.0,North,4.6,-,0.00,,Overcast,10,2012-11-09 07:26:00
1:53 AM,35.1,30.9,85,30.14,10.0,NNE,4.6,-,0.00,,Overcast,20,2012-11-09 07:53:00
2:53 AM,35.1,30.0,82,30.17,10.0,North,6.9,-,N/A,,Overcast,10,2012-11-09 08:53:00
3:53 AM,34.0,28.0,79,30.17,10.0,NNE,10.4,-,N/A,,Overcast,20,2012-11-09 09:53:00
4:53 AM,33.1,27.0,78,30.19,10.0,North,9.2,-,N/A,,Partly Cloudy,10,2012-11-09 10:53:00
5:07 AM,33.8,28.4,81,30.13,10.0,NNE,5.8,-,N/A,,Mostly Cloudy,20,2012-11-09 11:07:00
5:38 AM,33.8,28.4,81,30.13,10.0,NNE,5.8,-,N/A,,Overcast,20,2012-11-09 11:38:00
5:53 AM,33.1,28.0,82,30.18,10.0,NNE,4.6,-,N/A,,Mostly Cloudy,30,2012-11-09 11:53:00
6:53 AM,33.1,27.0,78,30.18,10.0,ENE,5.8,-,N/A,,Overcast,60,2012-11-09 12:53:00
7:53 AM,32.0,27.0,82,30.19,10.0,ENE,6.9,-,N/A,,Mostly Cloudy,60,2012-11-09 13:53:00
8:05 AM,32.0,26.6,80,30.14,10.0,NE,5.8,-,N/A,,Scattered Clouds,50,2012-11-09 14:05:00
8:41 AM,33.8,26.6,75,30.15,10.0,NE,5.8,-,N/A,,Mostly Cloudy,50,2012-11-09 14:41:00
8:53 AM,33.1,27.0,78,30.20,10.0,NE,8.1,-,N/A,,Overcast,50,2012-11-09 14:53:00
9:53 AM,34.0,27.0,75,30.20,10.0,East,9.2,-,N/A,,Overcast,80,2012-11-09 15:53:00
10:53 AM,34.0,27.0,75,30.21,10.0,NNE,8.1,-,N/A,,Overcast,30,2012-11-09 16:53:00
11:53 AM,34.0,27.0,75,30.19,10.0,NE,9.2,-,N/A,,Overcast,50,2012-11-09 17:53:00
12:53 PM,35.1,27.0,72,30.19,10.0,NE,8.1,-,N/A,,Overcast,50,2012-11-09 18:53:00
1:53 PM,36.0,28.0,73,30.17,10.0,East,8.1,-,N/A,,Overcast,80,2012-11-09 19:53:00
2:53 PM,36.0,28.0,73,30.14,10.0,ENE,10.4,-,N/A,,Overcast,60,2012-11-09 20:53:00
3:53 PM,36.0,28.0,73,30.16,10.0,ENE,5.8,-,N/A,,Overcast,70,2012-11-09 21:53:00
4:31 PM,37.4,28.4,70,30.10,10.0,ENE,6.9,-,N/A,,Overcast,60,2012-11-09 22:31:00
4:53 PM,37.0,28.0,70,30.15,10.0,East,8.1,-,N/A,,Overcast,80,2012-11-09 22:53:00
5:49 PM,37.4,28.4,70,30.10,10.0,East,6.9,-,N/A,,Overcast,80,2012-11-09 23:49:00
5:53 PM,37.0,28.0,70,30.15,10.0,East,8.1,-,N/A,,Overcast,80,2012-11-09 23:53:00
6:53 PM,36.0,28.0,73,30.16,10.0,East,6.9,-,N/A,,Overcast,90,2012-11-10 00:53:00
7:53 PM,35.1,26.1,70,30.16,10.0,East,9.2,-,N/A,,Overcast,80,2012-11-10 01:53:00
8:53 PM,34.0,27.0,75,30.16,10.0,East,10.4,-,N/A,,Overcast,90,2012-11-10 02:53:00
9:53 PM,34.0,26.1,73,30.17,10.0,East,12.7,-,N/A,,Overcast,100,2012-11-10 03:53:00
11:53 PM,32.0,28.0,85,30.13,10.0,East,12.7,-,0.00,,Overcast,100,2012-11-10 05:53:00